Wind_Speed
3 4 5 5 6 6 6 6 6 6 7 7 8 8 9 9 8 8 8 8 9 9 9 9 10 10 11 11 12 13 14 15 16 17 18 18 19 20 21 22 23 24
3 4 5 5 5 5 6 6 6 7 7 8 9 9 10 9 9 9 9 8 8 9 9 10 11 11 12 12 12 13 14 15 16 17 18 19 21 22 23 25 26 27
4 5 5 5 5 6 6 6 6 7 7 8 8 9 9 9 9 9 9 9 10 10 11 12 13 14 14 14 15 16 16 17 18 19 19 21 22 24 25 27 28 29
6 6 6 6 6 6 7 6 6 7 7 7 8 8 9 9 9 9 10 10 11 12 13 14 14 15 16 17 17 19 20 21 22 23 23 24 25 26 27 29 30 31
7 7 7 7 6 6 6 5 6 6 6 7 7 8 8 9 9 10 10 11 11 12 13 14 15 16 17 18 19 20 21 23 24 25 27 27 28 30 31 33 34 34
8 7 7 6 5 5 5 5 6 7 8 9 9 9 10 10 11 11 12 12 13 14 14 15 16 17 19 20 21 22 22 24 25 26 27 28 29 31 33 35 37 38
7 7 6 6 5 5 6 7 8 9 10 11 12 12 13 13 14 15 15 16 16 17 18 18 19 20 21 22 23 24 25 26 27 28 28 29 30 30 31 33 36 38
7 6 5 5 5 6 8 9 11 12 13 14 15 15 16 17 18 18 19 19 20 20 21 22 23 23 24 26 27 27 28 29 30 31 31 32 32 33 33 34 36 37
6 5 5 6 7 8 10 11 13 14 15 16 17 18 20 21 21 22 22 23 23 23 24 25 26 27 27 29 30 31 32 32 33 34 34 35 35 36 36 37 38 39
6 6 7 8 9 10 11 13 14 16 17 19 20 22 23 24 25 26 26 26 27 27 28 28 29 30 31 32 33 34 35 35 36 36 37 37 38 38 39 40 41 42
7 8 8 9 10 11 13 14 16 18 20 22 23 24 26 26 27 29 29 29 30 30 31 31 32 33 34 35 36 36 38 38 39 39 39 40 40 41 42 42 43 45
9 9 10 11 12 13 15 16 19 21 23 24 26 26 27 28 28 29 30 30 31 31 32 33 34 35 36 37 38 39 39 40 41 41 42 42 42 43 44 45 46 47
11 11 12 13 14 16 17 19 21 23 25 27 28 28 29 29 29 30 30 31 31 32 33 34 35 36 37 38 39 40 41 42 42 43 43 43 43 44 44 46 47 48
13 13 14 15 16 18 19 21 23 25 28 30 30 31 31 31 31 32 32 32 32 33 34 35 36 37 38 39 40 41 42 43 43 44 44 44 44 45 45 46 47 48
15 15 15 17 18 20 21 23 25 27 30 31 32 32 33 33 33 34 34 34 34 34 35 36 37 38 40 41 42 43 43 44 44 45 45 46 46 46 47 48 49 49
18 17 18 19 20 22 23 24 26 28 31 33 33 33 34 34 35 36 36 36 36 36 37 38 39 40 41 41 42 43 44 44 45 45 46 47 48 49 49 50 51 52
20 20 21 22 22 23 25 25 27 29 32 34 34 35 35 35 36 37 37 37 37 38 39 40 41 41 41 42 42 42 44 44 46 46 47 48 49 50 52 52 53 53
23 24 24 24 25 25 26 26 28 30 32 34 35 36 36 37 37 37 37 38 39 40 41 41 41 41 41 42 42 42 43 44 46 47 48 49 50 51 52 53 53 53
26 27 27 27 27 27 27 27 28 30 33 35 36 37 37 38 38 38 38 39 40 41 41 41 41 41 41 42 42 43 43 44 45 47 48 49 50 50 51 52 52 52
29 29 29 29 29 28 28 28 29 31 33 35 36 37 38 38 38 38 38 39 40 41 42 41 41 41 41 41 42 43 43 44 45 47 48 48 49 49 50 50 50 49
31 31 30 30 29 28 28 29 30 33 34 35 36 37 38 38 38 39 39 40 41 41 41 41 41 41 41 41 42 42 43 44 45 46 47 48 49 49 48 49 48 47
32 31 31 30 29 28 28 30 32 34 35 36 37 38 39 39 39 39 40 41 41 41 41 41 41 40 40 41 42 42 43 44 45 46 47 48 48 48 47 47 46 45
31 31 30 29 28 28 29 31 33 35 36 37 38 39 39 39 39 40 41 41 41 41 41 41 41 40 40 40 41 42 42 43 45 46 47 47 47 46 46 45 43 41
30 30 29 29 28 29 31 33 35 36 37 38 39 40 40 40 40 40 41 41 40 40 40 41 41 40 39 40 41 40 41 42 44 45 46 46 46 45 44 43 41 39
29 29 29 28 29 31 33 35 36 37 37 38 39 40 40 39 40 40 41 40 39 39 39 40 40 40 39 39 40 39 40 40 42 43 44 44 43 43 43 42 40 39
29 29 29 29 31 33 34 36 37 37 37 38 39 39 39 39 40 40 40 39 38 38 39 39 39 39 39 39 39 39 38 38 39 41 41 42 42 41 42 43 42 41
Wind_Direction
325 316 312 314 314 317 321 325 330 336 340 345 349 352 357 1 4 4 3 5 6 5 4 3 1 360 357 355 351 349 348 347 348 349 348 348 347 346 345 343 342 340
295 293 293 295 297 300 303 308 315 322 328 334 338 342 346 348 349 353 356 358 358 357 356 354 352 352 350 348 345 342 340 338 338 339 338 338 338 337 338 337 337 335
263 266 268 273 274 277 283 289 295 302 309 314 319 321 322 324 328 332 335 336 336 335 335 335 335 335 335 335 335 333 333 332 331 331 332 332 332 331 331 330 330 330
240 243 244 250 253 258 265 269 273 279 286 290 294 298 300 303 306 309 311 312 313 314 315 318 319 320 320 321 322 322 323 324 324 324 324 326 326 326 326 325 325 325
228 231 232 238 242 246 253 259 269 278 286 292 295 296 296 296 296 298 300 301 304 308 311 313 315 315 316 316 317 317 317 318 318 318 318 319 320 321 322 322 321 321
223 227 231 239 246 257 271 283 294 301 306 308 307 306 305 304 303 303 304 305 308 309 311 313 314 314 314 315 315 315 315 315 315 315 315 315 316 317 318 319 318 319
230 239 249 264 277 293 306 313 317 319 319 317 315 314 312 310 310 310 309 310 311 311 312 312 312 312 313 313 313 312 313 313 312 312 312 312 313 313 314 315 315 316
243 255 267 286 307 319 325 328 328 328 326 323 321 319 317 316 315 314 314 313 313 313 312 312 312 312 312 312 312 312 312 312 312 312 312 311 311 312 312 312 313 313
249 267 288 309 322 327 329 330 330 329 328 326 324 322 320 319 317 316 316 315 315 315 314 314 314 313 314 314 314 313 313 313 313 312 312 311 311 311 311 312 312 312
268 287 303 314 320 323 324 327 328 327 327 325 323 322 320 319 318 317 317 316 316 316 316 316 315 315 316 315 315 315 315 314 314 313 312 312 311 311 311 311 312 312
279 292 301 307 311 315 319 323 326 327 327 325 323 322 320 319 318 318 317 316 316 316 316 316 316 316 316 316 316 316 315 315 314 313 312 312 311 312 312 312 312 312
275 285 292 299 305 311 316 321 325 327 328 326 324 322 319 318 317 316 315 314 313 314 314 314 314 314 314 315 315 315 314 313 313 312 312 311 311 311 312 313 313 312
272 281 289 298 306 313 318 322 325 327 327 326 324 322 319 317 316 314 313 311 311 311 312 312 312 313 313 313 313 313 312 311 311 311 310 310 310 310 311 311 311 310
273 282 292 303 310 315 318 320 323 324 325 325 323 321 319 317 315 314 313 311 310 310 311 311 311 311 311 312 311 311 311 310 310 309 309 308 308 308 309 309 308 308
275 285 296 304 308 312 314 317 320 322 324 323 322 320 318 316 315 314 313 311 310 310 310 311 310 310 311 311 311 311 310 310 309 309 309 308 308 308 308 308 308 307
276 286 295 300 303 307 310 313 316 320 322 322 320 318 316 315 314 313 312 310 309 309 310 310 310 310 310 311 312 312 311 310 309 309 310 310 309 310 309 309 309 308
278 284 290 295 299 303 305 308 312 315 319 321 320 317 315 314 313 311 310 309 309 309 309 309 309 309 310 311 311 311 311 311 311 310 311 311 311 311 310 310 309 309
276 280 286 291 295 298 299 301 306 311 316 318 318 316 314 313 312 310 309 308 307 308 308 308 308 309 310 310 311 311 312 312 312 312 312 312 312 312 311 311 310 310
274 278 283 287 289 292 293 296 301 307 312 315 316 315 313 312 311 309 308 306 306 307 307 307 308 309 310 311 311 312 313 313 313 312 312 312 312 312 311 311 311 312
273 277 280 282 284 286 288 292 299 305 310 313 313 313 312 310 309 307 306 306 306 307 308 308 309 310 311 311 312 312 314 314 313 313 313 313 312 312 312 312 313 313
272 274 275 277 278 281 286 292 298 305 309 311 311 311 310 309 308 306 306 307 308 309 309 309 310 311 311 312 312 313 314 314 313 314 313 313 313 313 314 313 314 314
270 271 271 272 275 280 286 293 300 305 309 310 310 310 309 309 307 307 308 309 309 310 309 309 310 311 312 312 312 313 314 314 314 314 314 314 314 315 314 314 314 315
268 268 268 270 274 282 289 295 301 306 308 309 309 309 309 308 307 308 309 310 310 310 310 310 310 311 312 312 313 314 315 315 315 315 314 314 314 314 314 313 314 314
266 265 266 271 277 285 291 297 303 306 307 307 308 308 308 307 307 308 309 309 310 310 310 310 310 311 312 313 313 315 316 316 316 315 315 314 314 314 313 312 313 313
264 265 268 274 282 288 294 300 304 305 305 306 306 306 306 307 308 308 309 309 309 309 309 309 309 310 312 313 314 316 317 318 317 315 315 314 313 311 311 311 313 314
264 267 272 278 285 291 297 301 303 304 304 305 305 305 306 307 308 308 308 308 309 309 309 309 309 310 312 313 315 318 318 317 315 313 312 312 310 311 312 313 313 313
Height
1543 1544 1544 1544 1544 1544 1544 1543 1543 1543 1543 1543 1543 1543 1543 1543 1543 1543 1542 1541 1541 1541 1540 1539 1538 1536 1535 1534 1533 1533 1532 1532 1531 1530 1530 1529 1528 1528 1528 1527 1527 1526
1543 1543 1543 1543 1544 1544 1544 1544 1543 1543 1543 1543 1543 1543 1543 1543 1542 1542 1541 1541 1540 1540 1539 1538 1537 1535 1534 1533 1533 1532 1532 1531 1530 1529 1529 1528 1527 1527 1526 1525 1525 1524
1543 1543 1543 1543 1543 1543 1543 1543 1543 1543 1543 1543 1543 1543 1543 1543 1542 1542 1541 1540 1540 1539 1538 1537 1535 1534 1533 1532 1532 1531 1530 1530 1529 1528 1528 1527 1526 1525 1524 1523 1523 1522
1542 1542 1542 1543 1543 1543 1543 1543 1543 1543 1543 1543 1543 1543 1543 1542 1542 1541 1540 1540 1539 1538 1537 1536 1534 1533 1532 1531 1530 1529 1529 1528 1527 1526 1526 1525 1524 1523 1522 1521 1520 1520
1541 1541 1542 1542 1542 1542 1543 1543 1543 1543 1543 1543 1543 1542 1542 1541 1541 1540 1540 1539 1538 1537 1535 1534 1533 1532 1530 1530 1529 1528 1527 1526 1525 1524 1523 1522 1521 1520 1518 1517 1516 1516
1541 1541 1541 1541 1542 1542 1542 1542 1542 1542 1542 1542 1541 1541 1540 1540 1539 1539 1538 1537 1536 1535 1534 1532 1531 1530 1529 1528 1527 1526 1525 1524 1523 1522 1521 1520 1519 1517 1516 1514 1512 1511
1540 1540 1540 1540 1541 1541 1541 1541 1541 1541 1540 1540 1539 1539 1538 1538 1537 1536 1535 1534 1533 1532 1531 1530 1529 1528 1526 1525 1525 1524 1523 1522 1520 1519 1518 1517 1516 1515 1514 1512 1510 1509
1538 1539 1539 1539 1539 1539 1539 1539 1539 1539 1538 1538 1537 1537 1536 1535 1534 1534 1532 1531 1530 1529 1528 1527 1526 1525 1524 1522 1521 1520 1519 1518 1517 1515 1514 1513 1512 1511 1510 1509 1507 1506
1537 1537 1538 1538 1538 1537 1537 1537 1537 1537 1536 1536 1535 1534 1533 1533 1532 1531 1530 1529 1527 1526 1525 1524 1523 1521 1520 1519 1517 1516 1515 1514 1513 1511 1510 1509 1507 1506 1505 1504 1502 1501
1535 1536 1536 1536 1536 1536 1536 1536 1535 1535 1534 1533 1533 1532 1531 1530 1529 1527 1526 1525 1524 1523 1521 1520 1519 1517 1516 1515 1513 1512 1510 1509 1508 1507 1506 1504 1502 1501 1499 1498 1496 1495
1534 1534 1534 1535 1535 1535 1534 1534 1533 1532 1532 1531 1530 1529 1528 1527 1525 1524 1523 1522 1520 1519 1518 1516 1515 1513 1512 1510 1509 1508 1506 1504 1503 1501 1500 1499 1497 1495 1494 1492 1490 1488
1532 1533 1533 1533 1533 1533 1532 1531 1531 1530 1529 1528 1527 1526 1525 1524 1523 1522 1521 1519 1518 1516 1515 1513 1512 1510 1509 1507 1505 1504 1502 1500 1499 1497 1495 1494 1492 1490 1488 1486 1484 1482
1531 1531 1531 1531 1531 1530 1529 1529 1528 1527 1527 1526 1525 1524 1523 1522 1521 1520 1518 1517 1515 1514 1512 1511 1509 1507 1505 1504 1502 1500 1498 1496 1495 1493 1491 1489 1488 1486 1484 1482 1480 1478
1528 1529 1528 1528 1528 1527 1527 1526 1526 1525 1524 1523 1522 1521 1520 1519 1518 1517 1515 1514 1512 1511 1509 1508 1506 1504 1502 1500 1498 1496 1495 1492 1490 1489 1487 1485 1483 1482 1480 1478 1476 1474
1526 1526 1526 1526 1525 1525 1525 1524 1523 1522 1521 1520 1519 1518 1517 1515 1514 1513 1511 1510 1509 1507 1506 1504 1502 1501 1499 1497 1494 1492 1490 1488 1486 1484 1482 1480 1479 1477 1475 1473 1471 1469
1523 1523 1523 1523 1523 1522 1522 1521 1520 1519 1518 1518 1516 1515 1514 1512 1511 1509 1508 1506 1505 1503 1502 1500 1499 1497 1495 1493 1491 1488 1486 1484 1481 1479 1477 1475 1472 1471 1469 1467 1465 1463
1520 1521 1521 1521 1520 1519 1519 1518 1517 1517 1516 1515 1513 1512 1511 1509 1508 1506 1504 1503 1501 1500 1498 1497 1495 1493 1491 1489 1487 1484 1482 1479 1477 1474 1472 1470 1467 1465 1462 1460 1458 1456
1518 1518 1518 1518 1517 1516 1516 1515 1515 1514 1513 1512 1511 1509 1508 1506 1505 1503 1501 1499 1498 1496 1495 1493 1491 1489 1487 1485 1483 1481 1478 1475 1472 1470 1467 1465 1462 1460 1457 1454 1451 1449
1515 1515 1515 1515 1514 1514 1513 1512 1512 1511 1510 1509 1508 1506 1504 1503 1501 1499 1498 1496 1495 1493 1491 1489 1487 1485 1483 1481 1478 1476 1474 1471 1468 1465 1463 1461 1458 1455 1452 1449 1446 1443
1512 1512 1512 1511 1511 1511 1510 1509 1509 1508 1507 1506 1504 1503 1501 1499 1498 1496 1495 1493 1491 1489 1487 1485 1483 1481 1479 1477 1474 1471 1469 1466 1463 1461 1459 1456 1453 1450 1447 1443 1440 1437
1509 1509 1509 1508 1508 1507 1507 1506 1505 1504 1503 1502 1500 1499 1497 1496 1494 1492 1491 1489 1487 1485 1482 1480 1478 1477 1474 1472 1469 1467 1464 1461 1459 1456 1454 1451 1448 1445 1442 1438 1435 1432
1506 1505 1505 1505 1505 1504 1504 1503 1502 1501 1499 1498 1496 1495 1493 1492 1490 1488 1486 1484 1482 1480 1478 1476 1474 1472 1470 1468 1465 1463 1460 1457 1454 1451 1449 1446 1443 1440 1437 1434 1431 1428
1502 1502 1502 1502 1501 1501 1500 1499 1498 1497 1495 1494 1492 1490 1489 1487 1486 1484 1482 1480 1478 1476 1473 1471 1470 1468 1466 1463 1461 1458 1456 1453 1450 1447 1444 1441 1438 1436 1432 1429 1426 1424
1499 1499 1499 1498 1498 1497 1496 1495 1494 1493 1491 1490 1488 1486 1485 1483 1482 1480 1478 1476 1474 1472 1469 1467 1465 1463 1462 1459 1457 1455 1452 1449 1446 1442 1439 1436 1433 1430 1427 1424 1422 1421
1495 1495 1495 1495 1494 1493 1492 1491 1490 1489 1487 1486 1484 1482 1481 1479 1478 1475 1474 1472 1470 1468 1465 1463 1461 1459 1457 1455 1453 1451 1448 1445 1441 1438 1434 1432 1428 1425 1422 1420 1418 1416
1492 1492 1491 1491 1491 1489 1488 1487 1486 1485 1483 1482 1480 1478 1477 1475 1474 1471 1469 1467 1466 1463 1461 1459 1457 1455 1453 1451 1449 1447 1444 1441 1438 1434 1430 1427 1424 1420 1417 1414 1412 1411